Theta_e
297 301 303 304 304 305 305 306 306 306 305 304 303 302 302 303 304 306 308 308 308 309 307 306 307 307 307 306 307 306 305 306 306 306 307 313 320 323 326 329 331 328 330
297 300 301 302 304 304 304 305 305 304 304 304 303 303 302 303 304 305 305 306 307 307 307 305 306 306 306 306 307 306 306 306 307 303 304 301 305 312 322 325 328 328 330
295 297 299 301 302 303 303 303 303 302 302 301 302 301 302 302 302 302 303 305 306 307 307 306 306 306 310 307 307 306 306 305 307 307 304 301 302 306 314 319 323 324 325
296 298 299 300 302 303 302 302 302 301 301 299 301 301 299 298 300 302 303 305 305 305 307 307 307 307 309 307 307 311 308 308 306 308 311 309 306 302 302 310 315 319 321
296 297 299 302 304 302 301 300 300 299 299 302 303 302 302 302 302 304 305 305 304 305 307 308 307 308 309 308 307 306 306 308 308 309 309 309 309 307 304 302 305 312 317
295 297 300 303 303 302 300 299 298 298 301 303 303 302 301 303 304 304 304 306 304 305 306 308 308 311 311 309 306 306 305 305 307 308 308 308 306 306 306 305 305 307 313
295 296 297 300 301 301 299 298 297 296 301 302 302 302 301 304 304 305 306 305 303 304 306 307 311 311 311 308 307 305 305 305 307 308 308 310 310 310 309 307 304 304 308
295 297 299 298 299 300 299 297 296 295 300 301 301 301 301 303 306 307 307 305 304 307 309 311 311 311 310 307 306 306 305 308 308 308 309 310 311 312 310 307 305 303 303
296 297 297 298 298 299 299 296 295 295 299 300 300 300 301 302 303 304 305 305 307 309 309 310 310 310 309 305 306 308 304 308 308 308 309 310 311 312 311 310 309 306 301
295 296 297 298 299 299 298 295 295 294 298 300 300 301 301 302 302 303 304 304 307 308 308 309 308 309 309 305 305 307 308 305 308 309 308 307 308 309 310 309 310 309 307
295 296 297 299 300 299 297 295 295 294 297 300 300 300 301 303 303 302 303 305 306 306 306 307 307 307 307 306 303 304 306 306 306 308 309 306 307 305 307 309 311 311 309
297 297 297 298 298 299 298 296 295 294 295 299 300 301 301 302 301 301 302 305 304 305 305 306 306 306 306 306 305 302 302 302 302 304 304 306 308 308 307 307 306 306 309
296 297 296 297 297 298 298 297 295 294 295 299 300 300 301 301 300 299 302 304 304 304 304 304 303 304 305 305 303 303 303 303 303 302 302 302 303 301 301 302 302 303 305
296 296 295 296 296 298 298 298 296 294 295 297 298 299 299 300 299 300 301 303 304 302 302 302 302 303 303 303 302 302 302 303 304 305 305 305 305 303 302 301 302 303 302
295 296 296 296 297 297 297 298 297 295 294 294 297 297 299 300 299 299 300 301 300 300 300 299 299 299 300 301 301 302 302 302 304 305 305 305 301 302 304 304 303 302 303
295 296 296 296 296 296 297 298 296 295 294 293 294 297 298 298 297 298 298 298 298 297 297 298 298 298 300 301 301 301 300 302 301 301 302 303 300 301 303 301 300 299 297
294 294 294 294 294 294 296 296 296 295 294 293 293 293 295 296 296 296 296 296 295 296 296 296 296 295 296 301 300 300 298 300 299 298 298 299 299 299 300 300 298 297 298
292 292 292 292 293 294 295 296 295 294 293 292 291 292 292 292 294 294 293 294 294 294 294 294 295 294 295 300 299 298 294 295 296 296 296 296 296 296 297 297 295 293 293
292 292 293 293 293 293 294 294 294 292 291 291 291 291 291 291 291 291 291 291 292 292 293 294 293 292 292 297 298 295 292 293 294 295 295 291 290 293 295 293 291 289 289
292 292 293 293 293 293 293 292 292 291 289 291 291 291 291 290 290 290 290 290 291 292 292 293 292 294 291 295 297 296 291 290 292 293 292 294 289 292 292 289 288 287 287
292 293 292 292 293 293 293 292 292 290 292 292 291 291 291 290 289 289 289 289 289 290 289 290 290 290 291 291 296 297 290 290 290 290 290 288 292 291 291 291 286 287 287
291 292 290 292 293 293 292 292 291 294 293 292 292 291 291 291 290 288 287 287 287 287 286 286 287 288 288 293 295 297 296 293 289 288 289 288 292 290 290 287 288 288 287
290 290 290 291 290 291 291 291 293 293 293 292 292 292 291 291 290 287 287 286 286 286 287 286 286 287 287 287 294 296 297 296 290 288 289 291 292 290 288 288 287 287 282
289 290 289 288 289 290 290 289 290 290 290 290 291 291 290 290 289 289 288 287 285 286 286 285 285 286 285 286 286 289 291 296 292 291 288 290 289 288 285 286 285 282 280
290 289 288 288 289 289 288 288 289 288 287 287 288 288 289 289 289 289 288 287 289 289 287 287 287 285 286 287 290 288 287 287 289 287 283 283 282 281 281 280 280 280 280
290 288 288 288 288 288 288 288 289 289 288 287 287 288 288 288 288 288 288 293 294 294 294 294 291 289 293 294 294 295 294 293 293 287 282 282 282 281 281 280 280 280 282
Wind_Speed
5 7 7 7 6 3 2 3 2 3 2 1 2 2 3 3 3 4 6 6 5 6 5 3 4 4 4 5 6 5 6 5 4 3 5 4 5 7 7 7 8 8 9
6 7 7 6 6 4 4 1 0 2 2 1 2 2 2 3 4 3 4 5 5 5 5 4 4 5 4 6 5 5 5 3 4 3 3 6 6 4 6 7 8 11 7
9 6 6 6 5 5 4 3 0 2 2 4 2 2 2 2 3 4 4 4 5 6 6 6 5 5 5 4 5 5 6 7 4 5 3 4 4 4 4 4 5 6 4
6 5 6 6 6 5 4 3 1 2 3 3 1 1 1 2 3 3 4 6 6 6 7 6 5 5 4 5 5 5 5 4 6 4 5 4 4 4 8 5 3 4 5
6 5 5 5 5 7 7 5 3 3 4 2 3 2 3 3 3 4 6 6 5 6 6 6 6 5 4 4 5 5 6 5 4 5 5 7 7 4 4 6 6 3 3
5 6 5 6 5 4 5 4 4 3 1 2 4 2 3 6 4 4 4 5 4 5 6 6 5 4 5 5 5 5 5 6 6 5 6 6 5 6 7 4 4 4 4
4 3 5 5 5 6 7 5 4 3 2 2 3 2 5 5 4 5 4 7 4 4 5 6 8 6 5 5 5 5 5 6 6 7 6 6 7 6 6 6 4 3 2
2 5 7 6 7 7 7 6 5 3 3 3 4 4 5 4 3 4 5 4 4 4 6 8 9 9 6 5 5 4 4 6 5 8 7 6 5 4 5 3 2 4 2
6 6 5 5 6 6 8 8 5 4 5 4 3 5 5 4 4 6 5 4 3 7 7 8 8 8 7 6 6 4 5 5 6 7 7 6 5 4 6 4 3 3 4
6 1 4 5 4 5 5 6 5 5 5 4 4 5 5 5 5 5 4 3 5 5 7 7 7 7 5 6 6 4 6 5 6 5 7 6 4 4 4 4 4 4 4
6 5 6 6 6 5 6 6 5 6 5 5 5 6 5 6 4 3 3 3 4 5 6 6 7 7 6 5 5 6 6 7 7 6 6 5 5 4 4 3 3 3 2
8 8 7 7 7 7 7 7 7 7 6 6 5 5 5 5 1 3 4 3 3 3 5 5 6 5 5 6 5 5 5 6 6 5 6 8 6 6 5 4 6 4 5
9 8 7 7 7 7 7 7 7 8 7 5 5 5 6 6 4 4 3 2 3 3 4 4 5 5 5 5 4 5 6 7 6 5 5 5 4 4 4 3 3 2 2
9 7 7 8 7 7 8 8 8 7 6 5 6 6 7 6 5 4 4 2 3 3 4 4 4 4 4 2 5 5 6 6 5 5 4 4 4 4 4 4 5 5 4
7 7 7 7 7 7 8 7 7 7 6 6 6 7 7 6 5 5 5 4 4 4 5 4 5 5 4 3 5 5 6 6 5 4 3 4 5 7 5 2 4 4 3
8 8 8 8 8 7 7 7 7 7 6 7 8 7 6 6 6 5 5 5 5 5 5 6 5 3 3 4 10 8 6 5 4 4 4 3 5 6 6 9 10 8 4
8 8 7 6 7 7 6 7 7 5 7 7 7 7 6 7 6 6 5 6 6 5 6 5 5 5 5 7 5 7 4 4 3 2 3 3 4 5 3 5 6 7 8
7 7 6 6 7 5 6 6 5 6 7 7 7 7 7 7 6 6 6 6 5 6 5 6 6 6 5 8 6 6 4 4 4 1 1 2 1 3 4 1 2 3 4
7 7 7 6 6 7 7 5 6 7 6 8 8 7 7 7 6 7 7 6 5 5 6 5 6 6 6 9 8 5 4 5 6 5 3 1 1 4 6 2 3 4 3
8 8 9 7 7 8 6 6 7 7 8 8 8 7 7 7 8 8 8 6 5 6 5 6 6 9 7 10 10 8 3 5 4 5 3 6 4 3 4 2 1 2 3
10 8 8 8 10 8 6 8 7 9 10 7 7 7 8 9 9 7 5 5 6 5 6 7 6 7 8 8 13 12 4 4 4 4 3 4 7 4 3 1 2 3 2
10 10 8 10 10 7 5 8 8 9 7 7 7 7 8 7 5 7 6 6 6 6 7 6 7 6 6 12 12 14 14 8 4 5 4 5 10 7 5 3 3 3 2
12 8 8 11 8 7 5 7 10 6 6 6 8 8 7 6 6 6 7 5 5 5 7 5 6 7 4 5 12 15 15 14 6 4 7 10 12 10 6 6 5 4 2
10 9 8 9 9 7 6 7 7 6 6 8 8 6 6 7 6 5 5 5 5 6 6 5 7 7 4 5 4 5 6 13 8 7 5 6 8 9 7 6 5 3 3
11 9 8 8 10 7 7 7 6 6 7 6 6 6 5 6 5 5 5 6 7 9 6 7 7 6 7 7 10 9 6 6 8 5 3 3 3 4 3 3 4 4 4
12 10 9 8 9 8 7 7 6 5 6 6 5 4 4 4 4 4 5 10 14 13 17 18 12 7 15 14 12 15 17 16 15 5 4 5 6 6 6 6 5 4 6
Wind_Direction
190 158 166 167 157 178 247 253 272 319 7 344 339 341 308 301 302 296 306 327 332 341 353 344 338 328 321 303 302 307 300 301 284 301 292 277 270 264 254 247 246 233 219
163 186 171 164 166 184 208 247 95 345 342 326 280 260 294 298 292 314 328 326 322 309 312 323 305 293 298 293 293 299 304 293 302 276 279 297 301 275 247 236 241 249 248
191 201 174 176 177 198 204 177 320 326 298 307 321 337 331 332 336 327 305 304 313 311 299 286 275 286 285 287 294 292 292 296 290 282 231 309 252 335 302 297 249 240 234
135 150 166 164 191 204 169 169 198 282 279 298 301 282 253 312 275 293 298 303 312 300 290 272 274 272 282 290 290 301 300 296 297 300 290 264 245 271 300 308 331 298 263
195 184 172 177 179 162 189 195 205 263 286 278 286 320 300 313 291 287 294 307 301 306 315 293 279 264 262 272 286 297 298 296 293 296 299 305 305 248 233 284 300 316 314
183 186 195 176 195 193 184 192 212 252 295 320 311 319 324 314 303 300 316 311 321 309 295 312 289 273 277 271 273 275 282 287 285 282 284 278 276 299 302 294 283 284 306
173 238 260 221 235 215 202 205 198 256 255 297 287 280 271 283 282 303 318 306 297 288 316 312 326 315 283 280 271 269 278 281 282 286 283 274 264 270 275 283 274 268 289
238 251 243 233 218 205 199 199 203 246 244 261 264 278 276 267 276 282 283 285 270 307 338 347 332 317 310 311 277 261 268 275 276 276 275 267 266 262 271 248 290 315 305
259 258 269 255 237 213 201 195 206 242 246 249 268 275 275 296 307 292 272 261 315 339 339 333 322 330 316 311 288 259 270 276 274 271 271 267 254 243 255 256 236 230 288
233 280 310 291 255 224 203 197 201 228 244 241 248 256 266 272 269 274 291 337 354 333 339 322 326 327 346 359 341 319 299 286 285 287 293 286 271 274 271 252 243 223 230
240 251 263 257 243 229 208 216 222 228 242 241 241 252 271 269 268 289 305 353 336 340 328 323 321 327 335 347 348 346 359 353 349 349 356 347 318 293 305 294 282 282 169
250 251 255 255 245 227 230 230 230 228 229 238 239 251 265 268 301 291 300 299 309 315 311 313 316 318 331 336 351 343 341 338 332 336 347 351 354 14 9 16 23 28 25
267 255 257 254 241 237 231 230 227 227 226 221 241 253 254 248 244 262 271 304 301 294 296 303 307 312 319 327 345 339 325 317 313 320 336 331 349 353 350 351 354 359 28
262 265 273 266 254 243 232 230 231 220 216 217 235 244 247 249 244 252 253 248 264 279 282 284 289 298 305 339 332 326 308 300 299 301 306 305 336 352 349 339 335 329 332
276 264 259 266 265 261 247 234 228 215 204 216 229 239 245 245 243 253 255 256 253 251 269 287 307 317 318 7 329 310 303 303 307 326 7 28 35 16 358 339 357 353 338
268 267 271 275 276 268 254 240 230 219 197 214 230 236 244 243 241 247 250 245 251 259 261 259 257 273 279 290 326 331 309 316 330 338 354 15 37 21 35 75 64 55 22
286 289 287 280 281 284 271 253 235 214 209 218 230 236 242 245 241 243 245 245 251 248 257 267 270 265 267 269 281 314 307 300 308 1 359 3 27 16 355 92 76 61 59
315 312 296 293 290 286 290 271 242 223 221 225 231 232 237 245 245 245 245 248 242 245 245 250 251 248 254 268 251 286 295 285 273 185 59 1 11 18 353 185 143 93 69
284 268 270 264 267 276 275 266 256 236 225 235 235 231 230 243 242 245 245 241 237 245 242 242 254 247 257 255 239 255 266 265 251 197 188 194 293 308 299 302 183 162 159
280 280 281 277 269 266 264 258 249 235 238 237 237 228 228 232 235 230 233 231 224 238 240 253 241 247 254 250 247 230 235 259 261 264 193 193 193 242 283 290 272 210 198
283 283 288 272 262 269 260 256 257 245 241 233 235 235 228 226 226 226 220 227 233 243 249 252 251 248 240 252 248 230 218 234 260 258 228 210 207 197 249 201 172 185 165
288 284 286 284 275 261 240 258 257 256 239 245 249 250 245 236 232 222 238 233 232 240 251 251 269 251 246 248 243 227 223 224 221 239 242 211 199 185 207 180 200 199 161
285 277 275 287 278 271 240 253 260 262 261 258 252 251 250 235 223 222 238 234 223 231 253 244 255 268 249 251 249 234 224 228 225 217 242 214 199 190 201 211 215 218 161
284 281 284 282 281 267 263 242 276 278 264 259 251 249 246 252 236 227 221 223 219 236 240 242 254 259 256 249 234 234 225 228 225 221 238 204 200 202 207 230 235 191 191
302 288 280 280 279 276 270 276 278 285 280 272 263 261 252 250 253 234 219 222 231 218 229 231 235 241 261 250 223 211 216 211 217 184 182 204 206 214 223 227 223 210 206
304 293 291 279 273 272 279 286 284 271 271 285 284 263 257 261 256 257 276 239 240 236 238 247 234 246 245 257 235 227 225 219 213 188 194 210 210 218 216 216 217 202 213